DAL1051 KMSP-KSLC

Flight info

Callsign DAL1051
Flight time 2h 23m
Altitude 36000
Route LEINY6 LEINY RAP DDY CARTR1
Aircraft A21N/M-SDE2E3FGHIRWXY/LB1

Departure

Time 2026-05-04 00:00
Airport Minneapolis–Saint Paul International Airport / Wold–Chamberlain Field (KMSP)

Arrival

Time 2026-05-04 02:23
Airport Salt Lake City International Airport (KSLC)
Time Latitude Longitude Altitude Speed Heading
2026-05-03 23:34 44.88415 -93.21640 828 ft 0 kts 141°
2026-05-03 23:52 44.88420 -93.21647 831 ft 4 kts 141°
2026-05-03 23:52 44.88441 -93.21671 831 ft 4 kts 141°
2026-05-03 23:52 44.88458 -93.21690 831 ft 3 kts 141°
2026-05-03 23:53 44.88477 -93.21703 826 ft 4 kts 195°
2026-05-03 23:53 44.88495 -93.21685 828 ft 4 kts 225°
2026-05-03 23:53 44.88503 -93.21673 828 ft 0 kts 225°
2026-05-03 23:55 44.88487 -93.21697 826 ft 6 kts 225°
2026-05-03 23:55 44.88442 -93.21760 831 ft 12 kts 225°
2026-05-03 23:55 44.88379 -93.21849 831 ft 14 kts 226°
2026-05-03 23:55 44.88300 -93.21938 831 ft 14 kts 196°
2026-05-03 23:56 44.88228 -93.21847 827 ft 16 kts 120°
2026-05-03 23:56 44.88164 -93.21702 830 ft 18 kts 121°
2026-05-03 23:56 44.88096 -93.21542 828 ft 20 kts 121°
2026-05-03 23:56 44.88022 -93.21371 830 ft 21 kts 121°
2026-05-03 23:57 44.87942 -93.21187 831 ft 23 kts 121°
2026-05-03 23:57 44.87856 -93.20988 829 ft 24 kts 121°
2026-05-03 23:57 44.87765 -93.20777 830 ft 26 kts 121°
2026-05-03 23:57 44.87668 -93.20554 831 ft 27 kts 121°
2026-05-03 23:58 44.87567 -93.20319 829 ft 29 kts 121°
2026-05-03 23:58 44.87486 -93.20134 831 ft 14 kts 121°
2026-05-03 23:58 44.87435 -93.20073 832 ft 11 kts 190°
2026-05-03 23:58 44.87380 -93.20155 832 ft 13 kts 261°
2026-05-03 23:59 44.87408 -93.20254 831 ft 3 kts 302°
2026-05-03 23:59 44.87418 -93.20277 827 ft 22 kts 302°
2026-05-03 23:59 44.87679 -93.20876 832 ft 122 kts 300°
2026-05-03 23:59 44.88294 -93.22278 948 ft 201 kts 301°
2026-05-04 00:00 44.88952 -93.23737 2873 ft 168 kts 300°
2026-05-04 00:00 44.89600 -93.25253 3357 ft 192 kts 297°
2026-05-04 00:00 44.90277 -93.26993 3838 ft 213 kts 298°
2026-05-04 00:00 44.90879 -93.29015 4307 ft 236 kts 280°
2026-05-04 00:01 44.91024 -93.31414 4907 ft 252 kts 273°
2026-05-04 00:01 44.91100 -93.33913 5789 ft 257 kts 273°
2026-05-04 00:01 44.91181 -93.36417 6685 ft 261 kts 274°
2026-05-04 00:01 44.91274 -93.38980 7590 ft 263 kts 274°
2026-05-04 00:02 44.91376 -93.41563 8502 ft 265 kts 274°
2026-05-04 00:02 44.91480 -93.44161 9419 ft 266 kts 275°
2026-05-04 00:02 44.91584 -93.46784 10204 ft 272 kts 275°
2026-05-04 00:02 44.91697 -93.49537 10628 ft 290 kts 275°
2026-05-04 00:03 44.91812 -93.52444 11157 ft 302 kts 275°
2026-05-04 00:03 44.91927 -93.55432 11894 ft 307 kts 275°
2026-05-04 00:03 44.92046 -93.58456 12689 ft 310 kts 275°
2026-05-04 00:03 44.92164 -93.61507 13516 ft 313 kts 275°
2026-05-04 00:04 44.92281 -93.64593 14234 ft 317 kts 275°
2026-05-04 00:04 44.92400 -93.67715 14928 ft 321 kts 275°
2026-05-04 00:04 44.92521 -93.70871 15617 ft 325 kts 275°
2026-05-04 00:04 44.92643 -93.74075 16309 ft 329 kts 275°
2026-05-04 00:05 44.92767 -93.77313 16998 ft 333 kts 275°
2026-05-04 00:05 44.92890 -93.80588 17674 ft 337 kts 275°
2026-05-04 00:05 44.93016 -93.83916 18294 ft 341 kts 275°
2026-05-04 00:05 44.93142 -93.87277 18886 ft 345 kts 275°
2026-05-04 00:06 44.93266 -93.90669 19494 ft 348 kts 276°
2026-05-04 00:06 44.93392 -93.94087 20103 ft 350 kts 276°
2026-05-04 00:06 44.93516 -93.97534 20701 ft 353 kts 276°
2026-05-04 00:06 44.93641 -94.01008 21289 ft 356 kts 276°
2026-05-04 00:07 44.93766 -94.04504 21867 ft 359 kts 276°
2026-05-04 00:07 44.93887 -94.08037 22442 ft 362 kts 276°
2026-05-04 00:07 44.94014 -94.11594 23002 ft 364 kts 276°
2026-05-04 00:07 44.94142 -94.15178 23516 ft 367 kts 277°
2026-05-04 00:08 44.94265 -94.18798 23967 ft 370 kts 277°
2026-05-04 00:08 44.94390 -94.22436 24378 ft 373 kts 277°
2026-05-04 00:08 44.94516 -94.26102 24799 ft 375 kts 277°
2026-05-04 00:08 44.94638 -94.29745 25211 ft 377 kts 277°
2026-05-04 00:09 44.94759 -94.33458 25622 ft 380 kts 277°
2026-05-04 00:09 44.94884 -94.37191 26029 ft 382 kts 277°
2026-05-04 00:09 44.95038 -94.40943 26431 ft 384 kts 277°
2026-05-04 00:09 44.95194 -94.44716 26824 ft 386 kts 277°
2026-05-04 00:10 44.95351 -94.48508 27212 ft 388 kts 277°
2026-05-04 00:10 44.95509 -94.52323 27593 ft 390 kts 277°
2026-05-04 00:10 44.95666 -94.56158 27965 ft 392 kts 277°
2026-05-04 00:10 44.95820 -94.60021 28306 ft 395 kts 277°
2026-05-04 00:11 44.95972 -94.63895 28658 ft 397 kts 277°
2026-05-04 00:11 44.96125 -94.67797 29004 ft 399 kts 277°
2026-05-04 00:11 44.96279 -94.71718 29341 ft 401 kts 277°
2026-05-04 00:11 44.96429 -94.75661 29670 ft 403 kts 277°
2026-05-04 00:12 44.96574 -94.79621 29963 ft 405 kts 277°
2026-05-04 00:12 44.96723 -94.83598 30243 ft 406 kts 277°
2026-05-04 00:12 44.96872 -94.87590 30534 ft 408 kts 277°
2026-05-04 00:12 44.97017 -94.91592 30813 ft 409 kts 277°
2026-05-04 00:13 44.97166 -94.95598 31094 ft 410 kts 277°
2026-05-04 00:13 44.97316 -94.99626 31345 ft 411 kts 277°
2026-05-04 00:13 44.97465 -95.03662 31613 ft 412 kts 277°
2026-05-04 00:13 44.97609 -95.07704 31938 ft 412 kts 276°
2026-05-04 00:14 44.97753 -95.11739 32274 ft 411 kts 276°
2026-05-04 00:14 44.97893 -95.15759 32615 ft 409 kts 276°
2026-05-04 00:14 44.98027 -95.19769 32956 ft 408 kts 276°
2026-05-04 00:14 44.98163 -95.23759 33286 ft 406 kts 276°
2026-05-04 00:15 44.98294 -95.27734 33599 ft 405 kts 276°
2026-05-04 00:15 44.98425 -95.31700 33888 ft 403 kts 276°
2026-05-04 00:15 44.98559 -95.35657 34098 ft 403 kts 276°
2026-05-04 00:15 44.98689 -95.39607 34301 ft 403 kts 276°
2026-05-04 00:16 44.98816 -95.43563 34505 ft 403 kts 276°
2026-05-04 00:16 44.98939 -95.47509 34706 ft 403 kts 276°
2026-05-04 00:16 44.99064 -95.51463 34906 ft 402 kts 276°
2026-05-04 00:16 44.99193 -95.55404 35102 ft 402 kts 276°
2026-05-04 00:17 44.99316 -95.59345 35286 ft 402 kts 276°
2026-05-04 00:17 44.99436 -95.63290 35456 ft 402 kts 275°
2026-05-04 00:17 44.99553 -95.67231 35640 ft 401 kts 276°
2026-05-04 00:17 44.99672 -95.71171 35775 ft 402 kts 275°
2026-05-04 00:18 44.99903 -95.79069 35771 ft 403 kts 275°
2026-05-04 00:18 45.00135 -95.86970 35759 ft 402 kts 275°
2026-05-04 00:19 45.00361 -95.94875 35755 ft 402 kts 275°
2026-05-04 00:19 45.00571 -96.02774 35753 ft 402 kts 275°
2026-05-04 00:20 45.00779 -96.10674 35752 ft 402 kts 275°
2026-05-04 00:20 45.00985 -96.18539 35742 ft 404 kts 275°
2026-05-04 00:21 45.01186 -96.26466 35750 ft 404 kts 275°
2026-05-04 00:21 45.01383 -96.34397 35749 ft 404 kts 275°
2026-05-04 00:22 45.01571 -96.42349 35753 ft 406 kts 275°
2026-05-04 00:22 45.01756 -96.50317 35756 ft 406 kts 275°
2026-05-04 00:23 45.01937 -96.58302 35749 ft 407 kts 275°
2026-05-04 00:23 45.02124 -96.66297 35761 ft 407 kts 275°
2026-05-04 00:24 45.02288 -96.74299 35763 ft 407 kts 275°
2026-05-04 00:24 45.02444 -96.82300 35769 ft 407 kts 275°
2026-05-04 00:25 45.02599 -96.90307 35755 ft 408 kts 275°
2026-05-04 00:25 45.02752 -96.98328 35767 ft 409 kts 275°
2026-05-04 00:26 45.02897 -97.06363 35774 ft 409 kts 275°
2026-05-04 00:26 45.03045 -97.15008 35774 ft 409 kts 275°
2026-05-04 00:27 45.03546 -97.46734 35782 ft 409 kts 274°
2026-05-04 00:27 45.03463 -97.62802 35771 ft 414 kts 263°
2026-05-04 00:27 45.00714 -97.78899 35780 ft 416 kts 261°
2026-05-04 00:28 44.95261 -98.10493 35773 ft 418 kts 260°
2026-05-04 00:28 44.90498 -98.37564 35770 ft 418 kts 260°
2026-05-04 00:29 44.89087 -98.45525 35774 ft 419 kts 260°
2026-05-04 00:29 44.87666 -98.53492 35779 ft 419 kts 260°
2026-05-04 00:30 44.86248 -98.61452 35770 ft 418 kts 260°
2026-05-04 00:30 44.84819 -98.69388 35778 ft 418 kts 260°
2026-05-04 00:31 44.83387 -98.77319 35757 ft 418 kts 259°
2026-05-04 00:31 44.81949 -98.85251 35772 ft 418 kts 259°
2026-05-04 00:32 44.80506 -98.93190 35771 ft 418 kts 259°
2026-05-04 00:32 44.79300 -98.99786 35778 ft 419 kts 259°
2026-05-04 00:33 44.77106 -99.11679 35780 ft 419 kts 259°
2026-05-04 00:34 44.75630 -99.19604 35772 ft 419 kts 259°
2026-05-04 00:34 44.74158 -99.27536 35779 ft 419 kts 259°
2026-05-04 00:35 44.72682 -99.35464 35784 ft 419 kts 259°
2026-05-04 00:35 44.71197 -99.43381 35786 ft 419 kts 259°
2026-05-04 00:36 44.69703 -99.51290 35771 ft 419 kts 259°
2026-05-04 00:36 44.68217 -99.59213 35780 ft 419 kts 259°
2026-05-04 00:37 44.66725 -99.67132 35779 ft 419 kts 259°
2026-05-04 00:37 44.65216 -99.75044 35790 ft 420 kts 259°
2026-05-04 00:38 44.63703 -99.82961 35790 ft 420 kts 259°
2026-05-04 00:38 44.62184 -99.90871 35778 ft 420 kts 259°
2026-05-04 00:39 44.60663 -99.98781 35786 ft 420 kts 259°
2026-05-04 00:39 44.59126 -100.06692 35785 ft 420 kts 259°
2026-05-04 00:40 44.57854 -100.13264 35788 ft 420 kts 259°
2026-05-04 00:40 44.56056 -100.22490 35772 ft 420 kts 259°
2026-05-04 00:41 44.54506 -100.30376 35784 ft 420 kts 258°
2026-05-04 00:41 44.52949 -100.38269 35781 ft 420 kts 258°
2026-05-04 00:42 44.51393 -100.46153 35779 ft 420 kts 258°
2026-05-04 00:42 44.49843 -100.53982 35786 ft 420 kts 258°
2026-05-04 00:43 44.48275 -100.61865 35777 ft 420 kts 258°
2026-05-04 00:43 44.46702 -100.69732 35782 ft 420 kts 258°
2026-05-04 00:44 44.45120 -100.77604 35779 ft 420 kts 258°
2026-05-04 00:44 44.43538 -100.85474 35781 ft 420 kts 258°
2026-05-04 00:45 44.41947 -100.93338 35786 ft 420 kts 258°
2026-05-04 00:45 44.40351 -101.01193 35784 ft 420 kts 258°
2026-05-04 00:46 44.38749 -101.09047 35782 ft 420 kts 258°
2026-05-04 00:46 44.37141 -101.16898 35782 ft 420 kts 258°
2026-05-04 00:47 44.35530 -101.24746 35779 ft 420 kts 258°
2026-05-04 00:47 44.33914 -101.32585 35772 ft 420 kts 258°
2026-05-04 00:48 44.32292 -101.40424 35782 ft 420 kts 258°
2026-05-04 00:48 44.30663 -101.48257 35784 ft 420 kts 258°
2026-05-04 00:49 44.29028 -101.56093 35800 ft 420 kts 258°
2026-05-04 00:49 44.27383 -101.63917 35800 ft 420 kts 257°
2026-05-04 00:50 44.25738 -101.71730 35791 ft 420 kts 258°
2026-05-04 00:50 44.24096 -101.79546 35801 ft 420 kts 257°
2026-05-04 00:51 44.22443 -101.87359 35798 ft 420 kts 257°
2026-05-04 00:51 44.20781 -101.95159 35803 ft 420 kts 257°
2026-05-04 00:52 44.19127 -102.02906 35804 ft 420 kts 257°
2026-05-04 00:52 44.17435 -102.10754 35796 ft 420 kts 257°
2026-05-04 00:53 44.15763 -102.18494 35805 ft 420 kts 257°
2026-05-04 00:53 44.14085 -102.26294 35810 ft 420 kts 257°
2026-05-04 00:54 44.12404 -102.34083 35825 ft 420 kts 257°
2026-05-04 00:54 44.10707 -102.41869 35805 ft 421 kts 257°
2026-05-04 00:55 44.09000 -102.49654 35818 ft 421 kts 257°
2026-05-04 00:55 44.07299 -102.57444 35829 ft 421 kts 257°
2026-05-04 00:56 44.05595 -102.65233 35841 ft 421 kts 257°
2026-05-04 00:56 44.03877 -102.73007 35854 ft 421 kts 257°
2026-05-04 00:57 44.02152 -102.80779 35852 ft 421 kts 257°
2026-05-04 00:57 44.00421 -102.88540 35865 ft 421 kts 257°
2026-05-04 00:58 43.98689 -102.96302 35869 ft 421 kts 257°
2026-05-04 00:58 43.96876 -103.04035 35869 ft 422 kts 255°
2026-05-04 00:59 43.94929 -103.11710 35870 ft 422 kts 255°
2026-05-04 00:59 43.92976 -103.19393 35849 ft 422 kts 255°
2026-05-04 01:00 43.91014 -103.27066 35866 ft 422 kts 254°
2026-05-04 01:00 43.89062 -103.34672 35895 ft 422 kts 254°
2026-05-04 01:01 43.87097 -103.42338 35902 ft 422 kts 254°
2026-05-04 01:01 43.85126 -103.49997 35892 ft 422 kts 254°
2026-05-04 01:02 43.83140 -103.57652 35925 ft 423 kts 254°
2026-05-04 01:02 43.81151 -103.65302 35932 ft 422 kts 254°
2026-05-04 01:03 43.79156 -103.72949 35929 ft 422 kts 254°
2026-05-04 01:03 43.77156 -103.80589 35910 ft 423 kts 253°
2026-05-04 01:04 43.75148 -103.88235 35884 ft 423 kts 253°
2026-05-04 01:04 43.73136 -103.95885 35876 ft 423 kts 253°
2026-05-04 01:05 43.71111 -104.03526 35860 ft 424 kts 253°
2026-05-04 01:05 43.69101 -104.11127 35834 ft 424 kts 253°
2026-05-04 01:06 43.67071 -104.18767 35831 ft 424 kts 253°
2026-05-04 01:06 43.65047 -104.26406 35819 ft 424 kts 253°
2026-05-04 01:07 43.63008 -104.34039 35820 ft 424 kts 253°
2026-05-04 01:07 43.60966 -104.41671 35820 ft 424 kts 253°
2026-05-04 01:08 43.58920 -104.49301 35819 ft 424 kts 253°
2026-05-04 01:08 43.56867 -104.56927 35824 ft 424 kts 253°
2026-05-04 01:09 43.54806 -104.64539 35823 ft 424 kts 253°
2026-05-04 01:09 43.52741 -104.72143 35826 ft 423 kts 253°
2026-05-04 01:10 43.50672 -104.79739 35823 ft 423 kts 252°
2026-05-04 01:10 43.48613 -104.87279 35826 ft 423 kts 253°
2026-05-04 01:11 43.46538 -104.94860 35822 ft 423 kts 252°
2026-05-04 01:11 43.44452 -105.02428 35828 ft 423 kts 252°
2026-05-04 01:12 43.42372 -105.09987 35827 ft 423 kts 252°
2026-05-04 01:12 43.40282 -105.17539 35836 ft 422 kts 252°
2026-05-04 01:13 43.38195 -105.25046 35834 ft 420 kts 252°
2026-05-04 01:13 43.36100 -105.32538 35823 ft 419 kts 252°
2026-05-04 01:14 43.34008 -105.40012 35847 ft 419 kts 252°
2026-05-04 01:14 43.31918 -105.47485 35841 ft 419 kts 252°
2026-05-04 01:15 43.29824 -105.54953 35841 ft 419 kts 252°
2026-05-04 01:15 43.27727 -105.62414 35850 ft 419 kts 252°
2026-05-04 01:16 43.25628 -105.69864 35844 ft 418 kts 252°
2026-05-04 01:16 43.23528 -105.77293 35849 ft 417 kts 252°
2026-05-04 01:17 43.21428 -105.84711 35854 ft 417 kts 252°
2026-05-04 01:17 43.19314 -105.92122 35855 ft 418 kts 251°
2026-05-04 01:18 43.17198 -105.99531 35849 ft 418 kts 251°
2026-05-04 01:18 43.15089 -106.06880 35849 ft 417 kts 251°
2026-05-04 01:19 43.12962 -106.14279 35857 ft 417 kts 251°
2026-05-04 01:19 43.10835 -106.21666 35867 ft 417 kts 251°
2026-05-04 01:20 43.08763 -106.29078 35882 ft 416 kts 255°
2026-05-04 01:20 43.06988 -106.36616 35885 ft 416 kts 255°
2026-05-04 01:21 43.05221 -106.44138 35901 ft 415 kts 255°
2026-05-04 01:21 43.03446 -106.51649 35907 ft 415 kts 255°
2026-05-04 01:22 43.01667 -106.59162 35904 ft 415 kts 255°
2026-05-04 01:22 42.99878 -106.66666 35895 ft 415 kts 254°
2026-05-04 01:23 42.98396 -106.72877 35879 ft 411 kts 255°
2026-05-04 01:23 42.96629 -106.80264 35873 ft 409 kts 255°
2026-05-04 01:24 42.94571 -106.88841 35845 ft 409 kts 255°
2026-05-04 01:24 42.93085 -106.95022 35847 ft 409 kts 255°
2026-05-04 01:25 42.91301 -107.02396 35847 ft 409 kts 254°
2026-05-04 01:25 42.89517 -107.09751 35846 ft 406 kts 254°
2026-05-04 01:26 42.87739 -107.17055 35847 ft 406 kts 254°
2026-05-04 01:26 42.85956 -107.24361 35849 ft 406 kts 254°
2026-05-04 01:27 42.84171 -107.31658 35847 ft 406 kts 254°
2026-05-04 01:27 42.82376 -107.38957 35844 ft 406 kts 254°
2026-05-04 01:28 42.80593 -107.46195 35843 ft 406 kts 254°
2026-05-04 01:28 42.78795 -107.53477 35836 ft 406 kts 254°
2026-05-04 01:29 42.76993 -107.60753 35829 ft 406 kts 254°
2026-05-04 01:29 42.75182 -107.68024 35829 ft 406 kts 254°
2026-05-04 01:30 42.73367 -107.75294 35812 ft 406 kts 254°
2026-05-04 01:30 42.71552 -107.82547 35824 ft 405 kts 254°
2026-05-04 01:31 42.69736 -107.89790 35820 ft 405 kts 253°
2026-05-04 01:31 42.67915 -107.97025 35820 ft 404 kts 253°
2026-05-04 01:32 42.66089 -108.04247 35806 ft 404 kts 253°
2026-05-04 01:32 42.64260 -108.11470 35805 ft 404 kts 253°
2026-05-04 01:33 42.62427 -108.18687 35787 ft 404 kts 253°
2026-05-04 01:33 42.60588 -108.25894 35783 ft 404 kts 253°
2026-05-04 01:34 42.58760 -108.33054 35783 ft 404 kts 253°
2026-05-04 01:34 42.56914 -108.40255 35794 ft 404 kts 253°
2026-05-04 01:35 42.55061 -108.47459 35798 ft 404 kts 253°
2026-05-04 01:35 42.53206 -108.54647 35806 ft 404 kts 253°
2026-05-04 01:36 42.51345 -108.61834 35815 ft 404 kts 253°
2026-05-04 01:36 42.49479 -108.69020 35810 ft 404 kts 253°
2026-05-04 01:37 42.47611 -108.76199 35807 ft 404 kts 253°
2026-05-04 01:37 42.45733 -108.83385 35805 ft 405 kts 253°
2026-05-04 01:38 42.43851 -108.90554 35819 ft 403 kts 253°
2026-05-04 01:38 42.41974 -108.97692 35833 ft 403 kts 252°
2026-05-04 01:39 42.40091 -109.04831 35845 ft 403 kts 252°
2026-05-04 01:39 42.38208 -109.11962 35831 ft 403 kts 252°
2026-05-04 01:40 42.36323 -109.19082 35848 ft 402 kts 252°
2026-05-04 01:40 42.34430 -109.26192 35842 ft 402 kts 252°
2026-05-04 01:41 42.32537 -109.33297 35832 ft 402 kts 252°
2026-05-04 01:41 42.30639 -109.40398 35843 ft 402 kts 252°
2026-05-04 01:42 42.28733 -109.47491 35833 ft 402 kts 252°
2026-05-04 01:42 42.26821 -109.54607 35845 ft 404 kts 252°
2026-05-04 01:43 42.24899 -109.61735 35849 ft 404 kts 252°
2026-05-04 01:43 42.22972 -109.68853 35852 ft 404 kts 252°
2026-05-04 01:44 42.21041 -109.75969 35854 ft 404 kts 252°
2026-05-04 01:44 42.19104 -109.83089 35848 ft 405 kts 251°
2026-05-04 01:45 42.17159 -109.90216 35856 ft 405 kts 251°
2026-05-04 01:45 42.14228 -110.00914 35863 ft 406 kts 251°
2026-05-04 01:46 42.12290 -110.07997 35868 ft 406 kts 251°
2026-05-04 01:46 42.10331 -110.15118 35859 ft 406 kts 251°
2026-05-04 01:47 42.08358 -110.22251 35876 ft 407 kts 251°
2026-05-04 01:47 42.06377 -110.29382 35909 ft 407 kts 251°
2026-05-04 01:48 42.05395 -110.32920 35692 ft 401 kts 251°
2026-05-04 01:48 42.04418 -110.36433 35453 ft 400 kts 251°
2026-05-04 01:48 42.03442 -110.39935 35211 ft 399 kts 251°
2026-05-04 01:48 42.02471 -110.43414 34972 ft 397 kts 251°
2026-05-04 01:49 42.01504 -110.46881 34739 ft 395 kts 251°
2026-05-04 01:49 42.00535 -110.50339 34415 ft 394 kts 250°
2026-05-04 01:49 41.99576 -110.53766 33967 ft 390 kts 250°
2026-05-04 01:49 41.98625 -110.57156 33467 ft 386 kts 250°
2026-05-04 01:50 41.97682 -110.60515 32976 ft 382 kts 250°
2026-05-04 01:50 41.96748 -110.63837 32371 ft 379 kts 250°
2026-05-04 01:50 41.95821 -110.67132 31885 ft 375 kts 250°
2026-05-04 01:50 41.94899 -110.70397 31414 ft 372 kts 250°
2026-05-04 01:51 41.93984 -110.73638 30939 ft 369 kts 250°
2026-05-04 01:51 41.93076 -110.76846 30484 ft 366 kts 250°
2026-05-04 01:51 41.92208 -110.80039 30052 ft 362 kts 254°
2026-05-04 01:51 41.91736 -110.83338 29609 ft 357 kts 264°
2026-05-04 01:52 41.91556 -110.86715 29291 ft 368 kts 266°
2026-05-04 01:52 41.91414 -110.90150 29003 ft 369 kts 266°
2026-05-04 01:52 41.91266 -110.93581 28726 ft 368 kts 266°
2026-05-04 01:52 41.91109 -110.97002 28453 ft 367 kts 266°
2026-05-04 01:53 41.90948 -111.00413 28184 ft 366 kts 266°
2026-05-04 01:53 41.90783 -111.03810 27912 ft 364 kts 266°
2026-05-04 01:53 41.90617 -111.07201 27652 ft 363 kts 266°
2026-05-04 01:53 41.90451 -111.10578 27386 ft 362 kts 266°
2026-05-04 01:54 41.90284 -111.13946 27129 ft 361 kts 266°
2026-05-04 01:54 41.90117 -111.17313 26866 ft 362 kts 266°
2026-05-04 01:54 41.89948 -111.20684 26622 ft 361 kts 266°
2026-05-04 01:54 41.89778 -111.24046 26358 ft 360 kts 266°
2026-05-04 01:55 41.89607 -111.27396 26107 ft 359 kts 266°
2026-05-04 01:55 41.89438 -111.30704 25856 ft 351 kts 266°
2026-05-04 01:55 41.89271 -111.33934 25604 ft 343 kts 266°
2026-05-04 01:55 41.89107 -111.37093 25352 ft 336 kts 266°
2026-05-04 01:56 41.88947 -111.40183 25103 ft 329 kts 266°
2026-05-04 01:56 41.88787 -111.43245 24858 ft 329 kts 266°
2026-05-04 01:56 41.88627 -111.46291 24616 ft 328 kts 266°
2026-05-04 01:56 41.88466 -111.49332 24370 ft 324 kts 266°
2026-05-04 01:57 41.88306 -111.52348 24146 ft 326 kts 266°
2026-05-04 01:57 41.88142 -111.55372 23909 ft 324 kts 265°
2026-05-04 01:57 41.87765 -111.58361 23691 ft 325 kts 257°
2026-05-04 01:57 41.87203 -111.61250 23463 ft 325 kts 255°
2026-05-04 01:58 41.86613 -111.64154 23199 ft 320 kts 255°
2026-05-04 01:58 41.86031 -111.67048 22932 ft 320 kts 255°
2026-05-04 01:58 41.85442 -111.70005 22680 ft 339 kts 255°
2026-05-04 01:58 41.84835 -111.73066 22434 ft 338 kts 255°
2026-05-04 01:59 41.84234 -111.76097 22175 ft 339 kts 255°
2026-05-04 01:59 41.83628 -111.79153 21924 ft 339 kts 255°
2026-05-04 01:59 41.83023 -111.82210 21660 ft 340 kts 255°
2026-05-04 01:59 41.82417 -111.85264 21408 ft 338 kts 255°
2026-05-04 02:00 41.81813 -111.88299 21144 ft 336 kts 255°
2026-05-04 02:00 41.81210 -111.91318 20891 ft 334 kts 255°
2026-05-04 02:00 41.80611 -111.94313 20640 ft 332 kts 255°
2026-05-04 02:00 41.79902 -111.97239 20385 ft 330 kts 245°
2026-05-04 02:01 41.78580 -111.99736 20126 ft 330 kts 223°
2026-05-04 02:01 41.76646 -112.01354 19871 ft 330 kts 201°
2026-05-04 02:01 41.74401 -112.01984 19646 ft 331 kts 188°
2026-05-04 02:01 41.72111 -112.02274 19406 ft 330 kts 187°
2026-05-04 02:02 41.71554 -112.02341 19348 ft 329 kts 187°
2026-05-04 02:02 41.69283 -112.02631 19105 ft 329 kts 187°
2026-05-04 02:02 41.67011 -112.02950 18869 ft 327 kts 188°
2026-05-04 02:02 41.64760 -112.03282 18647 ft 325 kts 188°
2026-05-04 02:03 41.62523 -112.03621 18416 ft 323 kts 188°
2026-05-04 02:03 41.61344 -112.03802 18291 ft 322 kts 188°
2026-05-04 02:03 41.59093 -112.04149 18032 ft 321 kts 188°
2026-05-04 02:03 41.56880 -112.04494 17766 ft 320 kts 188°
2026-05-04 02:04 41.54710 -112.04891 17505 ft 319 kts 190°
2026-05-04 02:04 41.52522 -112.05342 17258 ft 318 kts 191°
2026-05-04 02:04 41.50339 -112.05797 17014 ft 317 kts 191°
2026-05-04 02:04 41.48163 -112.06247 16741 ft 316 kts 191°
2026-05-04 02:05 41.45989 -112.06697 16496 ft 315 kts 190°
2026-05-04 02:05 41.43826 -112.07143 16272 ft 314 kts 190°
2026-05-04 02:05 41.41677 -112.07586 16044 ft 313 kts 190°
2026-05-04 02:05 41.39523 -112.08028 15821 ft 312 kts 190°
2026-05-04 02:06 41.37385 -112.08467 15609 ft 311 kts 190°
2026-05-04 02:06 41.35245 -112.08907 15394 ft 310 kts 190°
2026-05-04 02:06 41.33112 -112.09345 15173 ft 310 kts 190°
2026-05-04 02:06 41.30982 -112.09780 14967 ft 309 kts 190°
2026-05-04 02:07 41.28864 -112.10213 14758 ft 308 kts 190°
2026-05-04 02:07 41.26749 -112.10643 14551 ft 308 kts 190°
2026-05-04 02:07 41.24637 -112.11074 14344 ft 306 kts 190°
2026-05-04 02:07 41.22541 -112.11504 14135 ft 305 kts 189°
2026-05-04 02:08 41.20448 -112.11948 13929 ft 304 kts 190°
2026-05-04 02:08 41.18364 -112.12403 13723 ft 304 kts 190°
2026-05-04 02:08 41.16280 -112.12855 13496 ft 303 kts 190°
2026-05-04 02:08 41.14206 -112.13304 13261 ft 302 kts 190°
2026-05-04 02:09 41.12130 -112.13752 13037 ft 302 kts 190°
2026-05-04 02:09 41.10060 -112.14197 12817 ft 301 kts 190°
2026-05-04 02:09 41.07990 -112.14600 12585 ft 301 kts 185°
2026-05-04 02:09 41.05902 -112.14452 12366 ft 301 kts 173°
2026-05-04 02:10 41.03878 -112.14011 12148 ft 300 kts 171°
2026-05-04 02:10 41.02477 -112.13689 11998 ft 299 kts 171°
2026-05-04 02:10 41.00430 -112.13227 11772 ft 298 kts 171°
2026-05-04 02:10 40.98388 -112.12776 11556 ft 298 kts 172°
2026-05-04 02:11 40.96344 -112.12329 11344 ft 297 kts 172°
2026-05-04 02:11 40.94298 -112.11885 11128 ft 297 kts 172°
2026-05-04 02:11 40.92263 -112.11450 10964 ft 296 kts 172°
2026-05-04 02:11 40.90226 -112.11028 10939 ft 296 kts 173°
2026-05-04 02:12 40.88181 -112.10747 10960 ft 296 kts 176°
2026-05-04 02:12 40.86130 -112.10506 10974 ft 296 kts 176°
2026-05-04 02:12 40.84076 -112.10269 10984 ft 296 kts 175°
2026-05-04 02:12 40.82029 -112.10031 10992 ft 296 kts 175°
2026-05-04 02:13 40.79978 -112.09791 10996 ft 296 kts 175°
2026-05-04 02:13 40.77926 -112.09551 10979 ft 296 kts 175°
2026-05-04 02:13 40.75879 -112.09310 10989 ft 296 kts 175°
2026-05-04 02:13 40.73823 -112.09068 10997 ft 296 kts 175°
2026-05-04 02:14 40.71770 -112.08826 11007 ft 296 kts 175°
2026-05-04 02:14 40.69720 -112.08584 11015 ft 296 kts 175°
2026-05-04 02:14 40.67678 -112.08345 10843 ft 294 kts 175°
2026-05-04 02:14 40.65639 -112.08105 10615 ft 295 kts 176°
2026-05-04 02:15 40.63604 -112.07868 10386 ft 295 kts 175°
2026-05-04 02:15 40.61556 -112.07628 10154 ft 294 kts 175°
2026-05-04 02:15 40.59516 -112.07390 9923 ft 293 kts 176°
2026-05-04 02:15 40.57525 -112.07157 9740 ft 294 kts 175°
2026-05-04 02:16 40.55500 -112.06612 9372 ft 290 kts 158°
2026-05-04 02:16 40.53856 -112.05184 9139 ft 280 kts 135°
2026-05-04 02:16 40.52776 -112.03180 8981 ft 268 kts 115°
2026-05-04 02:16 40.52298 -112.00873 8937 ft 251 kts 95°
2026-05-04 02:17 40.52276 -111.99782 8939 ft 249 kts 88°
2026-05-04 02:17 40.52277 -111.99712 8953 ft 248 kts 87°
2026-05-04 02:17 40.52369 -111.98291 8938 ft 249 kts 83°
2026-05-04 02:18 40.52442 -111.97543 8941 ft 250 kts 81°
2026-05-04 02:18 40.53064 -111.95439 8947 ft 248 kts 50°
2026-05-04 02:18 40.54458 -111.94154 8934 ft 246 kts 16°
2026-05-04 02:18 40.56127 -111.94024 8596 ft 241 kts 351°
2026-05-04 02:19 40.57769 -111.94506 8172 ft 242 kts 345°
2026-05-04 02:19 40.59154 -111.94952 8011 ft 233 kts 347°
2026-05-04 02:19 40.60033 -111.95184 7977 ft 223 kts 349°
2026-05-04 02:20 40.61552 -111.95472 7985 ft 220 kts 354°
2026-05-04 02:20 40.63069 -111.95645 7942 ft 216 kts 354°
2026-05-04 02:20 40.64564 -111.95818 7570 ft 215 kts 354°
2026-05-04 02:20 40.66049 -111.95990 7123 ft 214 kts 354°
2026-05-04 02:21 40.67530 -111.96161 6674 ft 211 kts 354°
2026-05-04 02:21 40.68962 -111.96327 6014 ft 203 kts 354°
2026-05-04 02:21 40.70313 -111.96484 5728 ft 185 kts 355°
2026-05-04 02:21 40.71537 -111.96626 5477 ft 161 kts 355°
2026-05-04 02:22 40.72592 -111.96749 5234 ft 148 kts 354°
2026-05-04 02:22 40.73617 -111.96865 5015 ft 147 kts 354°
2026-05-04 02:22 40.74632 -111.96970 4815 ft 146 kts 353°
2026-05-04 02:22 40.75635 -111.97098 4636 ft 144 kts 354°
2026-05-04 02:23 40.76634 -111.97215 4450 ft 144 kts 354°
2026-05-04 02:23 40.77634 -111.97335 4283 ft 144 kts 354°
2026-05-04 02:23 40.78576 -111.97439 4237 ft 123 kts 355°
2026-05-04 02:23 40.79190 -111.97511 4237 ft 45 kts 355°
2026-05-04 02:24 40.79337 -111.97536 4235 ft 17 kts 351°
2026-05-04 02:24 40.79457 -111.97588 4234 ft 20 kts 334°
2026-05-04 02:24 40.79546 -111.97677 4234 ft 12 kts 297°
2026-05-04 02:24 40.79551 -111.97696 4235 ft 0 kts 274°
2026-05-04 02:25 40.79547 -111.97722 4235 ft 6 kts 242°
2026-05-04 02:25 40.79525 -111.97787 4236 ft 10 kts 271°
2026-05-04 02:26 40.79486 -111.97862 4236 ft 13 kts 187°
2026-05-04 02:26 40.79389 -111.97854 4236 ft 15 kts 174°
2026-05-04 02:26 40.79275 -111.97840 4236 ft 14 kts 175°
2026-05-04 02:26 40.79169 -111.97828 4236 ft 17 kts 175°
2026-05-04 02:27 40.79045 -111.97814 4237 ft 19 kts 174°
2026-05-04 02:27 40.78906 -111.97797 4236 ft 21 kts 175°
2026-05-04 02:27 40.78784 -111.97783 4236 ft 13 kts 178°
2026-05-04 02:27 40.78746 -111.97874 4236 ft 14 kts 270°
2026-05-04 02:28 40.78738 -111.98018 4236 ft 17 kts 265°
2026-05-04 02:28 40.78727 -111.98183 4236 ft 19 kts 265°
2026-05-04 02:28 40.78714 -111.98367 4236 ft 21 kts 264°
2026-05-04 02:28 40.78701 -111.98570 4236 ft 23 kts 264°
2026-05-04 02:29 40.78686 -111.98790 4237 ft 23 kts 265°
2026-05-04 02:29 40.78676 -111.98939 4236 ft 14 kts 265°
2026-05-04 02:29 40.78647 -111.99019 4236 ft 8 kts 179°
2026-05-04 02:29 40.78614 -111.99014 4237 ft 6 kts 175°
2026-05-04 02:30 40.78609 -111.99014 4237 ft 1 kts 174°
2026-05-04 02:30 40.78598 -111.99012 4237 ft 0 kts 175°